Slayton, MN

2:07 AM CST on December 16, 2017 (GMT -0600)
Slayton

Weather History for KDVP - December, 2012

Change the Weather History Date:

Wednesday, December 5, 2012

  Actual Average (KOTG) Record (KOTG)
Temperature  
Mean Temperature 32 °F -  
Max Temperature 48 °F 32 °F 57 °F (2001)
Min Temperature 17 °F 18 °F -13 °F (1991)
Degree Days  
Heating Degree Days 32    
Moisture  
Dew Point 19 °F    
Average Humidity 58    
Maximum Humidity 78    
Minimum Humidity 36    
Precipitation  
Precipitation 0.00 in - - ()
Sea Level Pressure  
Sea Level Pressure 30.03 in    
Wind  
Wind Speed 15 mph (SE)    
Max Wind Speed 28 mph    
Max Gust Speed 34 mph    
Visibility 10 miles    
Events      
Averages and records for this station are not official NWS values.
T = Trace of Precipitation, MM = Missing Value Source: NWS Daily Summary

Daily Weather History Graph

Daily Weather History Graph

Search for Another Location

Airport or City:

Trip Planner

Search our weather history database for the weather conditions in past years. The results will help you decide how hot, cold, wet, or windy it might be!

Date:

Astronomy

Dec. 05, 2012 Rise Set
Actual Time 7:42 AM CST 4:45 PM CST
Civil Twilight 7:09 AM CST 5:17 PM CST
Nautical Twilight 6:33 AM CST 5:54 PM CST
Astronomical Twilight 5:58 AM CST 6:29 PM CST
Moon 11:46 PM CST (12/5) 11:57 AM CST (12/5)
Length of Visible Light 10h 08m
Length of Day
9h 02m
Waning Gibbous, 59% of the Moon is Illuminated
Dec 5
Waning Gibbous
Dec 6
Last Quarter
Dec 13
New
Dec 19
First Quarter
Dec 28
Full

Hourly Weather History & Observations

Time (CST) Temp. Windchill Dew Point Humidity Pressure Visibility Wind Dir Wind Speed Gust Speed Precip Events Conditions
12:15 AM 19.4 °F 11.5 °F 11.5 °F 71% 30.36 in 10.0 mi ENE 5.8 mph - N/A   Clear
12:35 AM 19.9 °F 13.4 °F 11.3 °F 69% 30.35 in 10.0 mi East 4.6 mph - N/A   Clear
12:55 AM 19.9 °F 12.1 °F 11.3 °F 69% 30.34 in 10.0 mi East 5.8 mph - N/A   Clear
1:15 AM 20.3 °F 11.5 °F 11.3 °F 68% 30.33 in 10.0 mi ESE 6.9 mph - N/A   Clear
1:55 AM 19.9 °F 10.1 °F 11.3 °F 69% 30.31 in 10.0 mi ESE 8.1 mph - N/A   Clear
2:15 AM 19.4 °F 11.5 °F 11.5 °F 71% 30.32 in 10.0 mi ESE 5.8 mph - N/A   Clear
2:35 AM 18.5 °F 9.3 °F 11.7 °F 75% 30.32 in 10.0 mi SE 6.9 mph - N/A   Clear
2:55 AM 17.6 °F 7.3 °F 11.3 °F 76% 30.31 in 10.0 mi SE 8.1 mph - N/A   Clear
3:15 AM 18.1 °F 7.9 °F 11.3 °F 75% 30.31 in 10.0 mi ESE 8.1 mph - N/A   Clear
3:35 AM 18.5 °F 7.5 °F 11.8 °F 75% 30.31 in 10.0 mi ESE 9.2 mph - N/A   Clear
3:55 AM 18.1 °F 6.3 °F 11.7 °F 76% 30.29 in 10.0 mi ESE 10.4 mph - N/A   Clear
4:15 AM 18.3 °F 7.3 °F 12.0 °F 76% 30.29 in 10.0 mi SE 9.2 mph - N/A   Clear
4:35 AM 17.6 °F 6.4 °F 11.7 °F 78% 30.28 in 10.0 mi SE 9.2 mph - N/A   Clear
4:55 AM 17.4 °F 4.7 °F 11.7 °F 78% 30.27 in 10.0 mi SE 11.5 mph - N/A   Clear
5:15 AM 18.1 °F 5.6 °F 11.8 °F 76% 30.26 in 10.0 mi SE 11.5 mph - N/A   Clear
5:35 AM 18.0 °F 5.4 °F 12.2 °F 78% 30.25 in 10.0 mi SE 11.5 mph - N/A   Clear
5:55 AM 19.2 °F 5.3 °F 12.2 °F 74% 30.25 in 10.0 mi SE 15.0 mph - N/A   Clear
6:15 AM 19.4 °F 5.5 °F 12.6 °F 75% 30.24 in 10.0 mi SE 15.0 mph - N/A   Clear
6:34 AM 19.2 °F 5.8 °F 12.7 °F 76% 30.25 in 10.0 mi SE 13.8 mph - N/A   Clear
6:55 AM 19.0 °F 5.0 °F 13.1 °F 78% 30.23 in 10.0 mi SE 15.0 mph - N/A   Clear
8:55 AM 24.1 °F 9.8 °F 14.9 °F 68% 30.18 in 10.0 mi SE 19.6 mph - N/A   Clear
9:15 AM 24.8 °F 10.0 °F 15.3 °F 67% 30.17 in 10.0 mi SE 21.9 mph 26.5 mph N/A   Clear
9:35 AM 25.7 °F 12.3 °F 15.6 °F 66% 30.17 in 10.0 mi SE 18.4 mph 25.3 mph N/A   Clear
9:54 AM 27.1 °F 13.4 °F 16.3 °F 64% 30.16 in 10.0 mi SE 20.7 mph 28.8 mph N/A   Clear
10:15 AM 29.3 °F 15.9 °F 17.2 °F 61% 30.14 in 10.0 mi SE 21.9 mph 26.5 mph N/A   Clear
10:35 AM 31.8 °F 19.6 °F 18.1 °F 57% 30.13 in 10.0 mi SSE 20.7 mph 28.8 mph N/A   Clear
10:55 AM 33.3 °F 20.6 °F 18.7 °F 55% 30.11 in 10.0 mi SSE 24.2 mph 29.9 mph N/A   Clear
11:15 AM 35.6 °F 24.0 °F 19.4 °F 52% 30.09 in 10.0 mi SSE 23.0 mph 28.8 mph N/A   Clear
11:35 AM 37.2 °F 25.9 °F 20.1 °F 50% 30.08 in 10.0 mi SSE 24.2 mph 34.5 mph N/A   Clear
11:55 AM 36.7 °F 25.4 °F 20.3 °F 52% 30.06 in 10.0 mi SSE 23.0 mph 32.2 mph N/A   Clear
12:15 PM 37.6 °F 26.6 °F 20.8 °F 51% 30.04 in 10.0 mi SSE 23.0 mph 31.1 mph N/A   Clear
12:35 PM 38.8 °F 27.8 °F 21.2 °F 49% 30.02 in 10.0 mi SSE 25.3 mph 33.4 mph N/A   Clear
12:55 PM 39.2 °F 28.7 °F 21.6 °F 49% 30.01 in 10.0 mi SSE 23.0 mph 31.1 mph N/A   Clear
1:14 PM 39.2 °F 27.8 °F 21.7 °F 50% 29.99 in 10.0 mi SSE 27.6 mph 32.2 mph N/A   Clear
1:35 PM 40.1 °F 29.5 °F 22.1 °F 49% 29.96 in 10.0 mi SSE 25.3 mph 31.1 mph N/A   Clear
1:56 PM 41.2 °F 30.9 °F 22.3 °F 47% 29.95 in 10.0 mi SSE 25.3 mph 32.2 mph N/A   Clear
2:15 PM 41.9 °F 31.7 °F 22.3 °F 46% 29.93 in 10.0 mi SSE 26.5 mph 32.2 mph N/A   Clear
2:35 PM 41.5 °F 31.6 °F 22.6 °F 47% 29.92 in 10.0 mi SSE 24.2 mph 33.4 mph N/A   Clear
2:55 PM 42.1 °F 32.8 °F 22.8 °F 46% 29.90 in 10.0 mi SSE 21.9 mph 28.8 mph N/A   Clear
3:15 PM 42.8 °F 33.8 °F 23.0 °F 46% 29.89 in 10.0 mi SSE 21.9 mph 28.8 mph N/A   Clear
3:35 PM 42.8 °F 33.3 °F 23.5 °F 47% 29.89 in 10.0 mi SSE 24.2 mph 28.8 mph N/A   Clear
3:55 PM 43.3 °F 34.7 °F 23.7 °F 46% 29.89 in 10.0 mi SSE 20.7 mph - N/A   Clear
4:15 PM 43.7 °F 35.0 °F 23.9 °F 46% 29.88 in 10.0 mi SSE 21.9 mph - N/A   Clear
4:34 PM 43.2 °F 34.2 °F 24.1 °F 47% 29.88 in 10.0 mi SSE 21.9 mph - N/A   Clear
4:55 PM 42.3 °F 33.8 °F 23.9 °F 48% 29.87 in 10.0 mi SSE 18.4 mph - N/A   Clear
5:15 PM 41.2 °F 32.4 °F 24.4 °F 51% 29.86 in 10.0 mi SSE 18.4 mph - N/A   Clear
5:35 PM 41.0 °F 31.9 °F 24.8 °F 53% 29.86 in 10.0 mi SSE 19.6 mph - N/A   Clear
5:55 PM 40.6 °F 31.2 °F 25.2 °F 54% 29.85 in 10.0 mi SSE 20.7 mph 25.3 mph N/A   Clear
6:15 PM 40.3 °F 31.6 °F 25.5 °F 56% 29.85 in 10.0 mi SSE 17.3 mph - N/A   Clear
6:35 PM 40.3 °F 30.4 °F 25.7 °F 56% 29.83 in 10.0 mi SSE 21.9 mph - N/A   Clear
6:55 PM 41.0 °F 31.4 °F 26.2 °F 56% 29.83 in 10.0 mi SSE 21.9 mph 27.6 mph N/A   Clear
7:15 PM 41.0 °F 31.4 °F 26.2 °F 56% 29.82 in 10.0 mi SSE 21.9 mph - N/A   Clear
7:35 PM 41.7 °F 31.9 °F 26.2 °F 54% 29.81 in 10.0 mi SSE 24.2 mph - N/A   Clear
7:54 PM 42.6 °F 33.5 °F 26.2 °F 52% 29.80 in 10.0 mi SSE 21.9 mph - N/A   Clear
8:15 PM 43.3 °F 34.2 °F 26.4 °F 51% 29.80 in 10.0 mi SSE 23.0 mph 28.8 mph N/A   Clear
8:35 PM 44.1 °F 35.2 °F 26.1 °F 49% 29.79 in 10.0 mi SSE 23.0 mph 28.8 mph N/A   Clear
8:55 PM 44.4 °F 35.9 °F 26.1 °F 49% 29.79 in 10.0 mi SSE 21.9 mph 27.6 mph N/A   Clear
9:15 PM 45.1 °F 36.2 °F 25.7 °F 47% 29.78 in 10.0 mi South 25.3 mph 32.2 mph N/A   Clear
9:35 PM 45.5 °F 37.1 °F 25.3 °F 45% 29.78 in 10.0 mi South 23.0 mph 31.1 mph N/A   Clear
9:55 PM 45.7 °F 38.3 °F 24.8 °F 44% 29.77 in 10.0 mi South 18.4 mph 28.8 mph N/A   Clear
10:15 PM 46.0 °F 38.0 °F 24.4 °F 43% 29.76 in 10.0 mi South 21.9 mph 28.8 mph N/A   Clear
10:35 PM 46.2 °F 38.1 °F 24.3 °F 42% 29.75 in 10.0 mi South 23.0 mph 29.9 mph N/A   Clear
10:55 PM 46.6 °F - 23.9 °F 41% 29.75 in 10.0 mi South 25.3 mph 33.4 mph N/A   Clear
11:14 PM 47.5 °F - 23.0 °F 38% 29.74 in 10.0 mi South 25.3 mph 34.5 mph N/A   Clear
11:35 PM 48.2 °F - 22.6 °F 37% 29.74 in 10.0 mi South 25.3 mph 32.2 mph N/A   Scattered Clouds
11:55 PM 48.2 °F - 22.5 °F 36% 29.74 in 10.0 mi South 25.3 mph 31.1 mph N/A   Scattered Clouds